TimeHST,TemperatureF,Dew PointF,Humidity,Sea Level PressureIn,VisibilityMPH,Wind Direction,Wind SpeedMPH,Gust SpeedMPH,PrecipitationIn,Events,Conditions,WindDirDegrees,DateUTC
12:53 AM,72.0,62.1,71,30.03,10.0,NNE,4.6,-,N/A,,Scattered Clouds,20,2013-04-28 10:53:00
1:53 AM,72.0,63.0,73,30.01,10.0,Calm,Calm,-,N/A,,Scattered Clouds,0,2013-04-28 11:53:00
2:00 AM,71.6,62.6,73,30.00,10.0,Calm,Calm,-,N/A,,Mostly Cloudy,0,2013-04-28 12:00:00
2:53 AM,71.1,63.0,75,30.00,10.0,North,3.5,-,N/A,,Partly Cloudy,360,2013-04-28 12:53:00
3:53 AM,72.0,64.9,78,30.00,10.0,NNW,3.5,-,N/A,,Scattered Clouds,340,2013-04-28 13:53:00
4:53 AM,71.1,64.9,81,30.00,10.0,Variable,3.5,-,N/A,,Partly Cloudy,0,2013-04-28 14:53:00
5:53 AM,70.0,64.9,84,30.00,10.0,Calm,Calm,-,N/A,,Partly Cloudy,0,2013-04-28 15:53:00
6:53 AM,72.0,66.0,81,30.02,10.0,Calm,Calm,-,N/A,,Partly Cloudy,0,2013-04-28 16:53:00
7:53 AM,75.9,66.0,71,30.02,10.0,NNE,5.8,-,N/A,,Scattered Clouds,20,2013-04-28 17:53:00
8:53 AM,77.0,64.9,66,30.02,10.0,South,3.5,-,N/A,,Scattered Clouds,170,2013-04-28 18:53:00
9:53 AM,78.1,66.0,66,30.02,10.0,SSE,8.1,-,N/A,,Scattered Clouds,160,2013-04-28 19:53:00
10:53 AM,79.0,68.0,69,30.02,10.0,SSE,8.1,-,N/A,,Scattered Clouds,160,2013-04-28 20:53:00
11:53 AM,79.0,66.9,66,30.01,10.0,SE,8.1,-,N/A,,Mostly Cloudy,140,2013-04-28 21:53:00
12:53 PM,79.0,66.9,66,29.99,10.0,SSE,9.2,-,N/A,,Scattered Clouds,150,2013-04-28 22:53:00
1:53 PM,80.1,66.9,64,29.98,10.0,South,8.1,-,N/A,,Scattered Clouds,170,2013-04-28 23:53:00
2:53 PM,80.1,66.0,62,29.96,10.0,SSE,8.1,-,N/A,,Scattered Clouds,150,2013-04-29 00:53:00
3:53 PM,79.0,66.9,66,29.95,10.0,South,9.2,-,N/A,,Scattered Clouds,170,2013-04-29 01:53:00
4:53 PM,79.0,66.9,66,29.95,10.0,South,6.9,-,N/A,,Scattered Clouds,190,2013-04-29 02:53:00
5:53 PM,78.1,66.9,68,29.95,10.0,SSE,4.6,-,N/A,,Scattered Clouds,160,2013-04-29 03:53:00
6:53 PM,77.0,66.9,71,29.96,10.0,SSE,4.6,-,N/A,,Scattered Clouds,160,2013-04-29 04:53:00
7:53 PM,77.0,68.0,74,29.97,10.0,SE,3.5,-,N/A,,Scattered Clouds,140,2013-04-29 05:53:00
8:53 PM,75.9,68.0,76,29.99,10.0,SSE,5.8,-,N/A,,Scattered Clouds,160,2013-04-29 06:53:00
9:53 PM,75.9,68.0,76,30.01,10.0,SSE,5.8,-,N/A,,Scattered Clouds,160,2013-04-29 07:53:00
10:53 PM,75.0,69.1,82,30.01,10.0,South,5.8,-,0.00,,Scattered Clouds,170,2013-04-29 08:53:00
11:53 PM,75.0,69.1,82,30.00,10.0,SSE,4.6,-,N/A,,Partly Cloudy,150,2013-04-29 09:53:00